This is the latest recevied weather packets stored in our database for station/object RN1M-13. If no packets are shown the sender has not sent any weather packets the latest 10 day(s).
| Time | Temp. | Humidity | Pressure | Rain* | Wind** | Luminosity | Snow |
|---|---|---|---|---|---|---|---|
| 1777302329 | 8.33° C | 51% | 1004.5 hPa | - | - | - | - |
| 1777301428 | 8.89° C | 54% | 1004.4 hPa | - | - | - | - |
| 1777300528 | 8.89° C | 57% | 1004.1 hPa | - | - | - | - |
| 1777299628 | 9.44° C | 60% | 1003.9 hPa | - | - | - | - |
| 1777298730 | 10° C | 65% | 1003.7 hPa | - | - | - | - |
| 1777297835 | 9.44° C | 64% | 1003.7 hPa | - | - | - | - |
| 1777296935 | 9.44° C | 67% | 1003.5 hPa | - | - | - | - |
| 1777296035 | 8.89° C | 67% | 1003.4 hPa | - | - | - | - |
| 1777295135 | 8.89° C | 70% | 1003.6 hPa | - | - | - | - |
| 1777294235 | 9.44° C | 76% | 1003.3 hPa | - | - | - | - |
| 1777293335 | 9.44° C | 75% | 1003.1 hPa | - | - | - | - |
| 1777292435 | 9.44° C | 78% | 1003.3 hPa | - | - | - | - |
| 1777291535 | 8.89° C | 78% | 1003.2 hPa | - | - | - | - |
| 1777290635 | 8.33° C | 79% | 1003 hPa | - | - | - | - |
| 1777289735 | 8.33° C | 78% | 1003.4 hPa | - | - | - | - |
| 1777288835 | 8.33° C | 76% | 1003.3 hPa | - | - | - | - |
| 1777287936 | 9.44° C | 86% | 1003.2 hPa | - | - | - | - |
| 1777287049 | 8.33° C | 93% | 1002.7 hPa | - | - | - | - |
| 1777286139 | 7.78° C | 100% | 1002.2 hPa | - | - | - | - |
| 1777285239 | 7.78° C | 100% | 1001.8 hPa | - | - | - | - |
| 1777284339 | 7.22° C | 100% | 1001.5 hPa | - | - | - | - |
| 1777283439 | 7.22° C | 100% | 1001.2 hPa | - | - | - | - |
| 1777282539 | 6.11° C | 100% | 1001.1 hPa | - | - | - | - |
| 1777281680 | 6.67° C | 100% | 1000.9 hPa | - | - | - | - |
| 1777281638 | 6.67° C | 100% | 1000.9 hPa | - | - | - | - |
* Rain since midnight (hover to see other rain measurements)
** Current wind speed in m/s (hover to see current wind gust speed)